TimeEST,TemperatureF,Dew PointF,Humidity,Sea Level PressureIn,VisibilityMPH,Wind Direction,Wind SpeedMPH,Gust SpeedMPH,PrecipitationIn,Events,Conditions,WindDirDegrees,DateUTC
12:54 AM,26.1,5.0,41,30.13,10.0,North,10.4,-,N/A,,Overcast,350,2014-02-09 05:54:00
1:54 AM,25.0,7.0,46,30.13,10.0,North,10.4,-,N/A,,Overcast,360,2014-02-09 06:54:00
2:54 AM,25.0,6.1,45,30.14,10.0,North,9.2,-,N/A,,Overcast,350,2014-02-09 07:54:00
3:54 AM,24.1,6.1,46,30.14,10.0,NNW,9.2,-,N/A,,Overcast,340,2014-02-09 08:54:00
4:54 AM,23.0,7.0,50,30.13,10.0,NNW,11.5,-,N/A,,Overcast,340,2014-02-09 09:54:00
5:40 AM,23.0,10.4,59,30.13,10.0,North,11.5,-,N/A,,Overcast,360,2014-02-09 10:40:00
5:54 AM,23.0,12.0,63,30.12,10.0,North,10.4,-,N/A,,Overcast,10,2014-02-09 10:54:00
6:12 AM,21.2,12.2,68,30.13,10.0,North,11.5,-,N/A,,Overcast,360,2014-02-09 11:12:00
6:54 AM,21.9,12.9,68,30.14,10.0,NNW,10.4,-,N/A,,Scattered Clouds,330,2014-02-09 11:54:00
7:54 AM,21.0,12.9,71,30.17,10.0,NNW,10.4,-,N/A,,Mostly Cloudy,330,2014-02-09 12:54:00
8:54 AM,21.9,12.0,66,30.17,10.0,NNW,10.4,-,N/A,,Mostly Cloudy,330,2014-02-09 13:54:00
9:24 AM,23.0,14.0,68,30.18,10.0,NNW,6.9,-,N/A,,Overcast,340,2014-02-09 14:24:00
9:54 AM,24.1,14.0,65,30.17,10.0,North,8.1,-,N/A,,Mostly Cloudy,360,2014-02-09 14:54:00
10:54 AM,26.1,15.1,63,30.15,10.0,NNE,9.2,-,N/A,,Mostly Cloudy,20,2014-02-09 15:54:00
11:54 AM,28.0,16.0,61,30.12,10.0,North,5.8,-,N/A,,Mostly Cloudy,10,2014-02-09 16:54:00
12:14 PM,28.4,15.8,59,30.11,10.0,NE,6.9,-,N/A,,Mostly Cloudy,40,2014-02-09 17:14:00
12:45 PM,28.4,17.6,64,30.09,10.0,NNE,6.9,-,N/A,,Overcast,30,2014-02-09 17:45:00
12:54 PM,28.9,17.1,61,30.09,10.0,NE,5.8,-,N/A,,Overcast,40,2014-02-09 17:54:00
1:14 PM,30.2,17.6,60,30.08,10.0,East,5.8,-,N/A,,Overcast,90,2014-02-09 18:14:00
1:54 PM,27.0,17.1,66,30.08,9.0,Variable,3.5,-,N/A,,Mostly Cloudy,0,2014-02-09 18:54:00
2:16 PM,26.6,17.6,69,30.08,10.0,SE,4.6,-,N/A,,Mostly Cloudy,140,2014-02-09 19:16:00
2:54 PM,27.0,17.1,66,30.06,10.0,Calm,Calm,-,N/A,,Overcast,0,2014-02-09 19:54:00
3:54 PM,27.0,17.1,66,30.04,10.0,ESE,5.8,-,N/A,,Overcast,110,2014-02-09 20:54:00
4:54 PM,27.0,18.0,69,30.03,10.0,ESE,8.1,-,N/A,,Overcast,110,2014-02-09 21:54:00
5:54 PM,27.0,21.0,78,30.05,10.0,East,5.8,-,N/A,,Overcast,100,2014-02-09 22:54:00
6:31 PM,26.6,21.2,80,30.05,9.0,ESE,4.6,-,0.00,,Overcast,110,2014-02-09 23:31:00
6:54 PM,28.0,23.0,81,30.04,5.0,ESE,5.8,-,0.00,Snow,Light Snow,120,2014-02-09 23:54:00
7:01 PM,26.6,23.0,86,30.03,2.5,ESE,6.9,-,0.00,Snow,Light Snow,120,2014-02-10 00:01:00
7:15 PM,26.6,24.8,93,30.03,2.5,ESE,5.8,-,0.00,Snow,Light Snow,120,2014-02-10 00:15:00
7:23 PM,28.4,24.8,86,30.02,2.5,ESE,5.8,-,0.00,Snow,Light Snow,110,2014-02-10 00:23:00
7:25 PM,28.4,24.8,86,30.02,4.0,ESE,5.8,-,0.00,Snow,Light Snow,120,2014-02-10 00:25:00
7:29 PM,28.4,24.8,86,30.02,4.0,ESE,5.8,-,0.00,,Overcast,110,2014-02-10 00:29:00
7:36 PM,28.4,24.8,86,30.02,5.0,ESE,5.8,-,0.00,,Overcast,110,2014-02-10 00:36:00
7:54 PM,28.0,24.1,85,30.00,6.0,ESE,5.8,-,0.00,Snow,Light Snow,110,2014-02-10 00:54:00
8:19 PM,28.4,24.8,86,30.00,8.0,SE,4.6,-,0.00,,Overcast,130,2014-02-10 01:19:00
8:50 PM,28.4,24.8,86,29.99,10.0,South,5.8,-,0.00,,Overcast,170,2014-02-10 01:50:00
8:54 PM,28.0,24.1,85,29.99,10.0,South,5.8,-,0.00,,Overcast,170,2014-02-10 01:54:00
9:14 PM,26.6,24.8,93,29.99,10.0,South,6.9,-,N/A,,Overcast,180,2014-02-10 02:14:00
9:29 PM,26.6,24.8,93,29.98,9.0,South,4.6,-,N/A,,Overcast,180,2014-02-10 02:29:00
9:54 PM,27.0,23.0,85,29.98,10.0,South,4.6,-,N/A,,Overcast,190,2014-02-10 02:54:00
10:35 PM,26.6,23.0,86,29.97,1.8,SSW,6.9,-,0.00,Snow,Light Snow,200,2014-02-10 03:35:00
10:43 PM,26.6,23.0,86,29.97,1.5,SSW,8.1,-,0.00,Snow,Light Snow,210,2014-02-10 03:43:00
10:54 PM,27.0,23.0,85,29.97,1.2,SSW,8.1,-,0.00,Snow,Light Snow,210,2014-02-10 03:54:00
11:10 PM,26.6,23.0,86,29.96,1.2,SW,9.2,-,0.01,Snow,Light Snow,220,2014-02-10 04:10:00
11:37 PM,26.6,21.2,80,29.96,1.0,SSW,11.5,-,0.02,Snow,Light Snow,210,2014-02-10 04:37:00
11:44 PM,24.8,21.2,86,29.96,0.8,SW,12.7,-,0.02,Snow,Light Snow,220,2014-02-10 04:44:00
11:54 PM,25.0,21.9,88,29.96,0.8,SW,11.5,-,0.03,Snow,Light Snow,230,2014-02-10 04:54:00